[[[{"header":{"parameterUnit":"kt","parameterCategory":2,"dx":1,"dy":1,"la1":30.253999710083008,"la2":30.299108505249023,"lo1":-89.0895004272461,"lo2":-89.04439544677734,"nx":28,"ny":28,"refTime":"2022-10-25T21:00:00:Z","depth":0,"parameterNumber":1,"parameterNumberName":"U-component_of_WINDS"},"data":[-3.3502,-3.3699,-3.3704,-3.3933,-3.3975,-3.4133,-3.4191,-3.4267,-3.4328,-3.4518,-3.4628,-3.4653,-3.4717,-3.4851,-3.4971,-3.498,-3.5034,-3.51,-3.5101,-3.4793,-3.4751,-3.4711,-3.4666,-3.511,-3.5111,-3.5421,-3.5424,-3.5426,-3.3279,-3.3323,-3.3443,-3.3565,-3.3669,-3.3607,-3.3698,-3.3791,-3.3934,-3.401,-3.4118,-3.4286,-3.4419,-3.4461,-3.459,-3.4685,-3.4665,-3.472,-3.4717,-3.4729,-3.4399,-3.435,-3.4735,-3.4735,-3.4735,-3.4734,-3.4734,-3.4734,-3.2874,-3.2992,-3.3067,-3.3199,-3.326,-3.3341,-3.3455,-3.3483,-3.3602,-3.3736,-3.3717,-3.388,-3.3958,-3.4116,-3.417,-3.4298,-3.4238,-3.4301,-3.4318,-3.4335,-3.4356,-3.3917,-3.4319,-3.4318,-3.4317,-3.4316,-3.4315,0,-3.2581,-3.2577,-3.2692,-3.281,-3.2906,-3.2998,-3.3083,-3.3153,-3.3145,-3.3244,-3.3388,-3.3472,-3.3638,-3.3777,-3.3898,-3.3941,-3.3892,-3.3884,-3.3929,-3.3945,-3.3943,-3.3952,-3.3419,-3.3874,-3.3871,-3.3868,-3.3866,-3.3864,-3.2179,-3.2314,-3.2393,-3.2474,-3.2521,-3.2652,-3.2731,-3.2713,-3.2798,-3.2901,-3.3006,-3.3142,-3.3251,-3.3482,-3.3514,-3.3639,-3.3617,-3.3791,-3.3636,-3.3644,-3.3627,-3.3622,-3.3638,-3.3824,-3.3829,-3.3833,-3.3837,0,-3.1953,-3.1958,-3.2168,-3.2233,-3.2254,-3.2397,-3.2454,-3.257,-3.2583,-3.2747,-3.2784,-3.2807,-3.2949,-3.2952,-3.3115,-3.3114,-3.3356,-3.3327,-3.333,-3.3327,-3.3487,-3.3474,-3.3997,-3.4066,-3.3599,-3.3603,-3.3607,0,-3.1615,-3.1792,-3.179,-3.1912,-3.2109,-3.2086,-3.2282,-3.2313,-3.2378,-3.2507,-3.2446,-3.2568,-3.2553,-3.2676,-3.2674,-3.2871,-3.29,-3.2913,-3.2911,-3.2922,-3.2922,-3.2973,-3.2954,-3.2894,-3.2892,-3.2889,-3.2887,0,-3.1266,-3.147,-3.1666,-3.1714,-3.1802,-3.1895,-3.1936,-3.2008,-3.2086,-3.2187,-3.2238,-3.2357,-3.2424,-3.2518,-3.2515,-3.241,-3.2754,-3.2609,-3.2768,-3.2769,-3.2849,-3.2845,-3.3301,-3.2884,-3.2883,-3.2882,-3.2881,0,-3.0995,-3.1095,-3.1378,-3.1449,-3.1504,-3.1633,-3.1749,-3.186,-3.1941,-3.1947,-3.2026,-3.1988,-3.2156,-3.2013,-3.2247,-3.2112,-3.2182,-3.2208,-3.2219,-3.2241,-3.2082,-3.2346,-3.2774,-3.2822,-3.2253,-3.2247,-3.2243,0,-3.0597,-3.0882,-3.0864,-3.1133,-3.1266,-3.119,-3.1333,-3.1405,-3.1425,-3.1542,-3.1563,-3.1697,-3.1591,-3.1634,-3.1748,-3.1778,-3.1952,-3.1753,-3.193,-3.1936,-3.1917,-3.2309,-3.2375,-3.2678,-3.2175,-3.2182,-3.2188,0,-3.0289,-3.0391,-3.044,-3.0495,-3.0585,-3.0695,-3.0858,-3.0984,-3.1064,-3.1149,-3.1289,-3.1474,-3.1403,-3.1474,-3.1455,-3.1574,-3.1833,-3.1483,-3.1484,-3.1551,-3.214,-3.2202,-3.2253,-3.1795,-3.1803,-3.181,-3.2134,0,-2.9889,-3.003,-3.0161,-3.0281,-3.0365,-3.0532,-3.0534,-3.0623,-3.0596,-3.0613,-3.0816,-3.0876,-3.1006,-3.1062,-3.1037,-3.1307,-3.1264,-3.1186,-3.1052,-3.1307,-3.1415,-3.1458,-3.0891,-3.0887,-3.0884,-3.0881,0,0,-2.951,-2.9713,-2.9687,-2.9844,-2.9914,-2.9833,-3.0013,-3.0071,-3.0194,-3.0245,-3.0168,-3.044,-3.0493,-3.074,-3.0819,-3.087,-3.092,-3.0831,-3.1184,-3.1218,-3.1249,-3.1364,-3.1409,-3.0875,-3.0874,-3.0873,-3.0872,0,-2.9365,-2.9415,-2.9591,-2.965,-2.9737,-2.9745,-2.9787,-2.986,-2.988,-3.0075,-3.0009,-3.013,-3.0347,-3.0413,-3.0476,-3.0799,-3.0745,-3.0837,-3.1013,-3.115,-3.1188,-3.1222,-3.1343,-3.1385,-3.0864,-3.0864,-3.0865,0,-2.9067,-2.9119,-2.9202,-2.9355,-2.9411,-2.9549,-2.9407,-2.9557,-2.966,-2.9566,-2.9763,-2.9797,-2.9885,-3.0115,-3.0218,-3.0153,-3.0586,-3.0448,-3.0469,-3.0482,-3.0615,-3.0661,-3.0702,-3.0166,-3.0163,-3.0161,0,0,-2.8942,-2.9072,-2.9123,-2.9324,-2.9364,-2.9379,-2.9451,-2.9432,-2.9511,-2.9543,-2.9586,-2.9666,-2.9792,-2.9876,-2.9993,-3.0245,-3.0265,-3.0362,-3.0394,-3.0421,-3.0449,-3.059,-3.0635,-3.0152,-3.0152,-3.0151,0,0,-2.8884,-2.8949,-2.8907,-2.9141,-2.9217,-2.9282,-2.9406,-2.9357,-2.9463,-2.9444,-2.9421,-2.9441,-2.9656,-2.9693,-2.9569,-2.9947,-2.9813,-2.9843,-2.9916,-2.9958,-2.999,-2.9979,-2.9435,0,0,0,0,0,-2.8736,-2.894,-2.8902,-2.8941,-2.9134,-2.9302,-2.9327,-2.9311,-2.9217,-2.9316,-2.9345,-2.928,-2.9622,-2.9511,-2.9552,-2.9692,-3.0033,-3.0054,-3.0074,-3.0228,-3.0271,-3.0308,0,0,0,0,0,0,-2.8752,-2.88,-2.8896,-2.897,-2.9013,-2.9295,-2.9132,-2.9134,-2.9206,-2.9191,-2.9276,-2.9282,-2.9273,-2.949,-2.9526,-2.966,-2.9423,-3.0041,-3.0059,-3.0075,-3.0243,-3.0278,-3.0309,0,0,0,0,0,-2.8764,-2.8802,-2.9115,-2.8967,-2.9004,-2.9032,-2.9124,-2.9124,-2.918,-2.9225,-2.9229,-2.9162,-2.9277,-2.9307,-2.9511,-2.9644,-2.9397,-2.9411,-3.0053,-3.0067,-3.008,-3.026,0,0,0,0,0,0,-2.8773,-2.8804,-2.9122,-2.9133,-2.8888,-2.9016,-2.9035,-2.9116,-2.9209,-2.9215,-2.9109,-2.9096,-2.9283,-2.9305,-2.9329,-2.9639,-2.9376,-2.939,-2.9399,-3.0064,-3.0075,-3.0085,0,0,0,0,0,0,-2.8783,-2.8814,-2.9128,-2.903,-2.9029,-2.9001,-2.9019,-2.9189,-2.9211,-2.9088,-2.9079,-2.9102,-2.9248,-2.9305,-2.9322,-2.959,-2.936,-2.9374,-2.9383,-2.9389,-3.0073,-3.0081,0,0,0,0,0,0,-2.8796,-2.8822,-2.9026,-2.9026,-2.9025,-2.9147,-2.9152,-2.9351,-2.9125,-2.9085,-2.9104,-2.9095,-2.925,-2.9268,-2.9319,-2.9579,-2.9587,-2.9361,-2.937,-2.9376,-2.9381,0,0,0,0,0,0,0,-2.8806,-2.8633,-2.9057,-2.9024,-2.9022,-2.9235,-2.9238,-2.9241,-2.9123,-2.9114,-2.9106,-2.9099,-2.9284,-2.9299,-2.9313,-2.957,0,0,-2.936,-2.9366,0,0,0,0,0,0,0,0,-2.8621,-2.863,-2.9058,-2.906,-2.9062,-2.9235,-2.9237,-2.924,-2.9121,-2.9115,-2.9108,-2.9102,-2.9288,-2.93,-2.9312,0,0,0,0,0,0,0,0,0,0,0,0,0,0,0,-2.9058,-2.906,0,-2.9235,-2.9237,-2.9239,-2.912,-2.9115,-2.9109,-2.9104,-2.9291,-2.9301,-2.9311,0,0,0,0,0,0,0,0,0,0,0,0,0,0,0,0,0,0,0,0,0,0,0,0,0,0,0,0,0,0,0,0,0,0,0,0,0,0,0,0,0,0,0,0,0,0,0,0,0,0,0,0,0,0,0,0,0,0,0,0,0,0,0,0,0,0,0,0,0]}],[{"header":{"parameterUnit":"kt","parameterCategory":2,"dx":1,"dy":1,"la1":30.253999710083008,"la2":30.299108505249023,"lo1":-89.0895004272461,"lo2":-89.04439544677734,"nx":28,"ny":28,"refTime":"2022-10-25T21:00:00:Z","depth":0,"parameterNumber":2,"parameterNumberName":"V-component_of_WINDS"},"data":[-8.4731,-8.4936,-8.4952,-8.5192,-8.5247,-8.5413,-8.5477,-8.5561,-8.5631,-8.5829,-8.5945,-8.5979,-8.6053,-8.6194,-8.6318,-8.633,-8.6382,-8.6443,-8.6447,-8.616,-8.6122,-8.6085,-8.6038,-8.6454,-8.6455,-8.6741,-8.6744,-8.6746,-8.4521,-8.4579,-8.471,-8.4849,-8.4961,-8.4912,-8.5017,-8.5114,-8.5262,-8.535,-8.5465,-8.5639,-8.5777,-8.5831,-8.5966,-8.6059,-8.6043,-8.6095,-8.6088,-8.61,-8.5795,-8.5746,-8.6106,-8.6106,-8.6106,-8.6106,-8.6106,-8.6105,-8.4143,-8.4265,-8.4358,-8.4501,-8.4574,-8.4666,-8.4784,-8.4825,-8.4952,-8.5097,-8.5088,-8.5256,-8.5344,-8.5513,-8.5572,-8.5702,-8.5646,-8.5707,-8.5722,-8.5738,-8.5754,-8.534,-8.5725,-8.5724,-8.5723,-8.5722,-8.5721,0,-8.3871,-8.3877,-8.4003,-8.4136,-8.424,-8.4344,-8.444,-8.4513,-8.4526,-8.463,-8.4782,-8.4871,-8.5046,-8.5189,-8.5317,-8.5366,-8.5324,-8.532,-8.5362,-8.537,-8.5361,-8.5369,-8.4871,-8.5309,-8.5305,-8.5303,-8.5301,-8.53,-8.3491,-8.3631,-8.3735,-8.3822,-8.3879,-8.4019,-8.4105,-8.4106,-8.4197,-8.4314,-8.442,-8.4563,-8.4678,-8.4915,-8.4957,-8.5088,-8.5068,-8.5234,-8.5087,-8.5089,-8.5072,-8.5064,-8.5078,-8.5262,-8.5267,-8.5271,-8.5274,0,-8.3276,-8.3301,-8.3522,-8.361,-8.3636,-8.3782,-8.3856,-8.3977,-8.4001,-8.417,-8.4209,-8.4248,-8.4395,-8.4411,-8.4581,-8.4584,-8.4822,-8.4799,-8.4792,-8.4789,-8.4939,-8.4926,-8.5425,-8.549,-8.5059,-8.5063,-8.5066,0,-8.2962,-8.3145,-8.317,-8.3297,-8.35,-8.3496,-8.3696,-8.3737,-8.3814,-8.3946,-8.3901,-8.4026,-8.4026,-8.4153,-8.4158,-8.4354,-8.4386,-8.44,-8.44,-8.4405,-8.4404,-8.4453,-8.4433,-8.4391,-8.4389,-8.4386,-8.4384,0,-8.2623,-8.285,-8.3056,-8.3111,-8.3223,-8.3319,-8.337,-8.3455,-8.3539,-8.3649,-8.3703,-8.3831,-8.3901,-8.4,-8.4006,-8.3906,-8.4247,-8.411,-8.4261,-8.4262,-8.4336,-8.4332,-8.477,-8.4381,-8.4381,-8.438,-8.4379,0,-8.2372,-8.2487,-8.2782,-8.2873,-8.2933,-8.3068,-8.3195,-8.3314,-8.3407,-8.3419,-8.3506,-8.3477,-8.3649,-8.3513,-8.375,-8.3619,-8.369,-8.3719,-8.373,-8.3747,-8.3594,-8.384,-8.4255,-8.43,-8.3762,-8.3757,-8.3752,0,-8.1978,-8.2282,-8.2281,-8.256,-8.2703,-8.2643,-8.2792,-8.2876,-8.2905,-8.3028,-8.3059,-8.3199,-8.31,-8.3146,-8.3262,-8.3299,-8.347,-8.3276,-8.3452,-8.3458,-8.3431,-8.3812,-8.3871,-8.4163,-8.3687,-8.3694,-8.3699,0,-8.1675,-8.181,-8.186,-8.1923,-8.2035,-8.2153,-8.2324,-8.2463,-8.2545,-8.2643,-8.2787,-8.2983,-8.2917,-8.2992,-8.2982,-8.3101,-8.3354,-8.3013,-8.3015,-8.3075,-8.3654,-8.3709,-8.3759,-8.332,-8.3328,-8.3334,-8.3646,0,-8.1293,-8.1448,-8.1583,-8.1723,-8.1817,-8.1992,-8.201,-8.2106,-8.2087,-8.2113,-8.2323,-8.2394,-8.2533,-8.2592,-8.2574,-8.2843,-8.28,-8.2727,-8.2596,-8.2846,-8.2949,-8.2991,-8.244,-8.2437,-8.2433,-8.2431,0,0,-8.091,-8.1131,-8.1124,-8.1291,-8.137,-8.1305,-8.1491,-8.1559,-8.1699,-8.1754,-8.168,-8.1968,-8.2029,-8.2281,-8.236,-8.2416,-8.2466,-8.2377,-8.2726,-8.2759,-8.279,-8.29,-8.2944,-8.2425,-8.2424,-8.2423,-8.2422,0,-8.0774,-8.0841,-8.1025,-8.1096,-8.1201,-8.122,-8.1265,-8.1356,-8.1381,-8.1587,-8.1529,-8.1656,-8.1885,-8.1958,-8.2024,-8.2347,-8.2296,-8.2388,-8.2557,-8.2694,-8.2731,-8.2764,-8.288,-8.2921,-8.2414,-8.2414,-8.2415,0,-8.048,-8.0548,-8.0639,-8.0815,-8.0883,-8.103,-8.0897,-8.1057,-8.1166,-8.1084,-8.1288,-8.133,-8.1427,-8.1664,-8.177,-8.1706,-8.214,-8.2005,-8.2026,-8.2038,-8.217,-8.2215,-8.2255,-8.1731,-8.1729,-8.1726,0,0,-8.036,-8.0503,-8.0576,-8.0787,-8.0834,-8.0865,-8.0944,-8.0934,-8.1024,-8.106,-8.1112,-8.1201,-8.1334,-8.1421,-8.1547,-8.1804,-8.1823,-8.192,-8.1953,-8.1979,-8.2005,-8.2145,-8.2189,-8.1717,-8.1717,-8.1717,0,0,-8.0302,-8.0395,-8.036,-8.0608,-8.0698,-8.0782,-8.091,-8.0868,-8.0983,-8.0965,-8.0952,-8.0975,-8.1196,-8.1239,-8.1114,-8.15,-8.1369,-8.1399,-8.1464,-8.1505,-8.1537,-8.1522,-8.0986,0,0,0,0,0,-8.0172,-8.0383,-8.0351,-8.0395,-8.0617,-8.08,-8.0828,-8.0823,-8.0731,-8.0833,-8.087,-8.0809,-8.1169,-8.1058,-8.1101,-8.124,-8.1599,-8.162,-8.164,-8.1784,-8.1826,-8.1862,0,0,0,0,0,0,-8.0189,-8.0244,-8.0345,-8.0439,-8.0488,-8.0792,-8.0635,-8.064,-8.072,-8.0706,-8.0804,-8.0812,-8.081,-8.1036,-8.1074,-8.1207,-8.0973,-8.1607,-8.1625,-8.1641,-8.1798,-8.1833,-8.1863,0,0,0,0,0,-8.0203,-8.0247,-8.0603,-8.0435,-8.0479,-8.0524,-8.0627,-8.063,-8.0692,-8.075,-8.0756,-8.0682,-8.0814,-8.0846,-8.1059,-8.1189,-8.0946,-8.096,-8.1619,-8.1633,-8.1645,-8.1816,0,0,0,0,0,0,-8.0213,-8.025,-8.0611,-8.0624,-8.0355,-8.0506,-8.053,-8.0622,-8.073,-8.0738,-8.0625,-8.0613,-8.082,-8.0844,-8.0869,-8.1184,-8.0924,-8.0939,-8.0948,-8.1629,-8.164,-8.165,0,0,0,0,0,0,-8.0226,-8.0261,-8.0618,-8.0517,-8.0519,-8.0491,-8.0512,-8.069,-8.0732,-8.0599,-8.0592,-8.0618,-8.0781,-8.0843,-8.0862,-8.1141,-8.0907,-8.0921,-8.0931,-8.0937,-8.1638,-8.1647,0,0,0,0,0,0,-8.0241,-8.0271,-8.0514,-8.0515,-8.0516,-8.066,-8.0648,-8.0874,-8.0648,-8.0595,-8.0627,-8.0618,-8.0782,-8.0801,-8.0858,-8.1129,-8.1138,-8.0907,-8.0917,-8.0924,-8.0928,0,0,0,0,0,0,0,-8.0253,-8.0053,-8.0535,-8.0513,-8.0513,-8.0744,-8.0747,-8.0751,-8.0646,-8.0637,-8.0629,-8.0622,-8.0826,-8.0842,-8.0857,-8.112,0,0,-8.0906,-8.0913,0,0,0,0,0,0,0,0,-8.004,-8.005,-8.0536,-8.0539,-8.0541,-8.0744,-8.0747,-8.075,-8.0644,-8.0638,-8.0631,-8.0625,-8.083,-8.0843,-8.0856,0,0,0,0,0,0,0,0,0,0,0,0,0,0,0,-8.0536,-8.0538,0,-8.0745,-8.0747,-8.0749,-8.0643,-8.0638,-8.0632,-8.0627,-8.0834,-8.0844,-8.0855,0,0,0,0,0,0,0,0,0,0,0,0,0,0,0,0,0,0,0,0,0,0,0,0,0,0,0,0,0,0,0,0,0,0,0,0,0,0,0,0,0,0,0,0,0,0,0,0,0,0,0,0,0,0,0,0,0,0,0,0,0,0,0,0,0,0,0,0,0]}]]]